Kezdőlap
METAR-TAF:

METAR-TAF

Repülőterek :

Kirksville Regional Airport

Kirksville, Missouri, Amerikai Egyesült Államok

földrajzi szélesség: 40-05-50N, földrajzi hosszúság: 092-32-36W, magasság: 294 m

Jelenlegi meteorológiai megfigyelések

A jelentés 55 perccel ezelõtt készült, 10:55 UTC
Szélcsend
Hőmérséklet 11°C
Páratartalom 82%
Légköri nyomás 1016 hPa
Látótávolság: 16.1 km
Derült ég

METAR: KIRK 171055Z AUTO 00000KT 10SM CLR 11/08 A2999 RMK AO2 SLP157 T01060078 $

Idő: 06:50 (11:50 UTC)


TAF: hiányzik

Meteorológiai megfigyelések és előrejelzések több, mint 4000 repülőtéren (METAR és TAF jelentéseket).

A térképen piros és sárga pontok jelzik az elérhető meteorológiai állomásokat.

Mozgassa az egeret a pont fölött, hogy megjelenjen az állomás neve.

Azután kattintson az időjárási megfigyelések és előrejelzések megtekintéséhez.

A térkép megváltoztatása: kattintson a fekete keresztel jelölt zöld gombra ráközelítéshez, a vonallal jelölt zöld gombra távolításhoz, vagy a zöld nyilakra a szomszédos térképek eléréséhez.


METAR-TAF: